Weather History for Broomfield, CO

Change the Weather History Date:

Thursday, May 16, 2013

  Actual Average Record
Temperature  
Mean Temperature 64 °F -  
Max Temperature 78 °F 68 °F 88 °F (1988)
Min Temperature 51 °F 44 °F 37 °F (1986)
Growing Degree Days 14 (Base 50)    
Moisture  
Dew Point 41 °F    
Average Humidity 53    
Maximum Humidity 77    
Minimum Humidity 16    
Precipitation  
Precipitation 0.00 in - - ()
Sea Level Pressure  
Sea Level Pressure 29.93 in    
Wind  
Wind Speed 5 mph (West)    
Max Wind Speed 10 mph    
Max Gust Speed -    
Visibility 10 miles    
Events      
Averages and records for this station are not official NWS values.
T = Trace of Precipitation, MM = Missing Value Source: NWS Daily Summary

Daily Weather History Graph

Daily Weather History Graph

Search for Another Location

Airport:

Trip Planner

Search our weather history database for the weather conditions in past years. The results will help you decide how hot, cold, wet, or windy it might be!

Date:

Astronomy

May. 16, 2013 Rise Set
Actual Time 5:44 AM MDT 8:09 PM MDT
Civil Twilight 5:13 AM MDT 8:40 PM MDT
Nautical Twilight 4:35 AM MDT 9:18 PM MDT
Astronomical Twilight 3:53 AM MDT 10:01 PM MDT
Moon 11:19 AM MDT (5/16) 12:32 AM MDT (5/16)
Length of Visible Light 15h 27m
Length of Day
14h 25m
Waxing Crescent, 36% of the Moon is Illuminated
May 16
Waxing Crescent
May 17
First Quarter
May 24
Full
May 31
Last Quarter
Jun 8
New

Hourly Weather History & Observations

Time (MDT) Temp. Dew Point Humidity Pressure Visibility Wind Dir Wind Speed Gust Speed Precip Events Conditions
12:15 AM 57.2 °F 48.2 °F 72% 30.00 in 10.0 mi NNW 6.9 mph - N/A   Clear
12:35 AM 55.4 °F 48.2 °F 77% 29.99 in 10.0 mi NNW 6.9 mph - N/A   Clear
12:55 AM 55.4 °F 46.4 °F 72% 29.97 in 10.0 mi SE 3.5 mph - N/A   Scattered Clouds
1:15 AM 55.4 °F 48.2 °F 77% 29.97 in 10.0 mi Calm Calm - N/A   Scattered Clouds
1:35 AM 55.4 °F 48.2 °F 77% 29.97 in 10.0 mi SW 5.8 mph - N/A   Clear
1:54 AM 53.6 °F 46.4 °F 77% 29.97 in 10.0 mi WSW 5.8 mph - N/A   Clear
2:15 AM 53.6 °F 46.4 °F 77% 29.96 in 10.0 mi West 5.8 mph - N/A   Clear
2:35 AM 53.6 °F 44.6 °F 72% 29.96 in 10.0 mi West 3.5 mph - N/A   Clear
2:55 AM 55.4 °F 44.6 °F 67% 29.96 in 10.0 mi SW 4.6 mph - N/A   Clear
3:15 AM 53.6 °F 44.6 °F 72% 29.96 in 10.0 mi SW 5.8 mph - N/A   Clear
3:35 AM 57.2 °F 41.0 °F 55% 29.94 in 10.0 mi Calm Calm - N/A   Clear
3:55 AM 53.6 °F 41.0 °F 62% 29.95 in 10.0 mi SW 3.5 mph - N/A   Clear
4:15 AM 55.4 °F 42.8 °F 63% 29.94 in 10.0 mi Calm Calm - N/A   Clear
4:35 AM 60.8 °F 35.6 °F 39% 29.93 in 10.0 mi NW 5.8 mph - N/A   Clear
4:55 AM 53.6 °F 42.8 °F 67% 29.93 in 10.0 mi SSE 3.5 mph - N/A   Clear
5:15 AM 53.6 °F 44.6 °F 72% 29.93 in 10.0 mi SW 3.5 mph - N/A   Clear
5:35 AM 51.8 °F 44.6 °F 76% 29.93 in 10.0 mi Calm Calm - N/A   Clear
5:46 AM 55.4 °F 44.6 °F 67% 29.93 in 70.0 mi Calm Calm - N/A   Mostly Cloudy
5:52 AM 53.6 °F 42.8 °F 67% 29.93 in 10.0 mi Calm Calm - N/A   Clear
6:47 AM 57.2 °F 44.6 °F 63% 29.94 in 70.0 mi NW 5.8 mph - N/A   Mostly Cloudy
7:47 AM 57.2 °F 48.2 °F 72% 29.96 in 70.0 mi North 5.8 mph - N/A   Mostly Cloudy
8:45 AM 62.6 °F 46.4 °F 55% 29.96 in 70.0 mi Calm Calm - N/A   Scattered Clouds
9:53 AM 66.2 °F 42.8 °F 43% 29.95 in 70.0 mi Variable 3.5 mph - N/A   Partly Cloudy
10:53 AM 69.8 °F 37.4 °F 31% 29.94 in 70.0 mi Variable 4.6 mph - N/A   Partly Cloudy
11:52 AM 73.4 °F 37.4 °F 27% 29.92 in 70.0 mi Variable 3.5 mph - N/A   Scattered Clouds
12:48 PM 71.6 °F 39.2 °F 31% 29.92 in 50.0 mi Variable 4.6 mph - N/A   Mostly Cloudy
1:53 PM 75.2 °F 35.6 °F 24% 29.89 in 45.0 mi Variable 4.6 mph - N/A   Scattered Clouds
2:49 PM 77.0 °F 28.4 °F 17% 29.88 in 45.0 mi SSW 5.8 mph - N/A   Scattered Clouds
4:47 PM 78.8 °F 28.4 °F 16% 29.85 in 50.0 mi North 10.4 mph - N/A   Mostly Cloudy
5:48 PM 75.2 °F 30.2 °F 19% 29.86 in 50.0 mi Variable 3.5 mph - N/A   Mostly Cloudy
6:47 PM 75.2 °F 37.4 °F 25% 29.87 in 50.0 mi Variable 4.6 mph - N/A   Mostly Cloudy
7:48 PM 71.6 °F 33.8 °F 25% 29.88 in 35.0 mi NNW 10.4 mph - N/A   Mostly Cloudy
8:47 PM 68.0 °F 32.0 °F 26% 29.90 in 30.0 mi North 8.1 mph - N/A   Mostly Cloudy
9:47 PM 66.2 °F 37.4 °F 35% 29.92 in 30.0 mi Calm Calm - N/A   Mostly Cloudy
11:15 PM 60.8 °F 41.0 °F 48% 29.92 in 10.0 mi WSW 3.5 mph - N/A   Clear
11:35 PM 60.8 °F 41.0 °F 48% 29.93 in 10.0 mi West 5.8 mph - N/A   Clear
11:54 PM 60.8 °F 39.2 °F 45% 29.93 in 10.0 mi North 8.1 mph - N/A   Clear